Theta_e
317 321 324 327 318 317 320 322 325 326 328 330 330 336 339 342 350 351 347 351 351 362 353 348 347 346 343 339 335 331 333 338 338 332 328 323 324 327 331 331 330 327 328 329 328 328 329 330 331
313 323 324 325 316 317 318 323 323 327 329 330 330 338 338 339 342 344 349 352 353 352 359 349 348 349 344 339 336 333 333 336 338 334 331 324 325 328 329 329 329 327 328 329 329 328 325 328 333
315 323 325 315 315 317 319 322 324 327 328 328 328 332 338 340 340 342 347 351 354 351 355 349 348 351 344 339 337 335 334 335 335 335 334 326 326 328 327 327 329 330 330 331 334 334 334 335 330
321 323 323 319 320 320 319 321 324 324 326 326 327 334 334 337 340 343 346 351 352 356 353 351 348 352 344 339 338 337 335 334 335 334 334 328 326 327 327 327 328 332 331 334 337 337 334 330 326
319 320 318 318 318 318 320 322 324 324 325 325 325 330 333 335 336 340 346 349 354 356 356 348 348 352 345 339 338 338 336 334 333 334 333 328 326 327 327 326 325 330 331 333 328 328 327 326 322
318 319 315 316 317 319 320 324 324 324 325 324 324 325 328 330 330 332 341 348 356 359 361 357 350 352 346 339 338 338 336 332 331 332 332 329 328 329 327 327 323 328 331 327 324 323 323 321 322
317 315 317 318 319 320 321 325 323 324 324 323 324 322 323 324 324 327 336 353 352 361 361 359 353 352 348 340 338 338 336 332 328 328 330 329 328 330 328 327 322 327 329 327 325 323 324 322 322
318 315 317 317 318 318 319 321 324 324 324 323 323 322 322 322 322 324 332 350 359 356 361 361 358 352 349 342 339 337 335 332 327 326 326 326 326 327 327 326 322 326 326 325 325 324 326 322 321
318 312 313 315 317 316 318 316 320 320 322 322 321 321 321 321 321 321 326 335 355 357 361 358 358 357 349 343 339 337 334 331 327 325 325 325 325 326 326 325 322 323 324 324 324 326 323 321 323
314 311 314 315 315 316 317 318 318 319 319 319 320 320 320 320 321 321 323 323 353 351 355 358 356 356 352 344 340 337 335 331 328 325 323 322 323 325 325 325 323 322 323 324 325 323 322 323 337
318 313 317 318 318 319 317 317 318 317 316 318 318 318 319 319 320 320 321 322 322 349 348 350 357 356 350 345 342 338 336 333 329 326 324 321 322 325 325 324 322 323 325 325 323 332 336 338 338
318 318 318 318 318 318 316 318 316 317 317 317 317 317 318 318 318 319 320 320 320 345 345 346 357 356 350 345 347 346 339 336 332 329 325 322 322 329 331 328 331 330 325 324 324 336 339 339 340
315 315 317 318 318 317 317 316 315 316 317 317 317 318 317 317 317 317 319 319 319 321 333 344 350 356 351 352 350 347 348 339 335 331 327 323 326 334 339 335 344 338 330 338 339 338 340 343 339
317 317 317 318 318 317 315 315 317 317 318 317 318 318 318 318 317 317 317 318 319 320 321 324 328 338 350 351 354 349 348 346 341 334 330 325 337 338 341 340 346 342 339 339 340 339 339 340 343
318 315 315 316 317 316 317 315 316 318 318 318 319 319 318 318 317 316 316 317 318 320 321 320 321 320 335 350 351 350 346 347 347 345 341 334 337 343 342 342 344 343 342 341 343 342 340 340 343
316 315 314 315 317 317 317 315 316 319 319 319 319 319 319 318 318 318 317 317 317 318 319 322 322 321 323 339 351 350 347 349 347 346 345 346 336 340 344 341 342 341 340 339 339 340 341 342 344
315 314 315 315 316 316 315 314 317 318 317 317 319 319 319 319 320 319 317 318 318 318 319 319 322 324 321 323 343 351 349 349 349 346 347 347 345 341 343 341 340 339 338 338 336 336 343 344 344
314 314 313 314 314 315 315 315 315 317 318 319 319 318 319 319 320 320 320 320 319 318 318 319 321 325 324 321 330 345 350 349 351 347 348 347 346 345 341 342 341 342 339 337 343 344 345 345 343
313 313 313 314 315 314 314 315 315 316 318 318 318 319 319 318 319 320 320 321 320 319 318 318 320 326 322 323 332 339 344 349 349 343 348 347 346 346 342 340 342 341 338 342 344 343 344 343 344
314 314 314 315 315 315 314 315 315 315 316 318 319 319 318 318 320 320 320 320 320 320 319 319 320 321 321 319 321 329 336 346 345 342 335 349 346 346 344 338 340 338 335 344 345 343 344 345 343
315 314 315 315 316 316 315 315 315 316 317 317 319 320 320 320 318 320 321 320 320 320 319 318 321 321 321 319 319 326 336 346 347 345 338 350 348 346 345 337 337 337 333 342 347 345 345 343 344
315 315 316 317 316 316 315 316 315 315 316 319 320 320 321 321 321 321 321 321 321 320 320 319 319 321 321 318 319 321 326 342 344 346 347 346 346 346 345 335 335 336 336 347 347 345 342 344 343
315 316 316 316 316 315 317 316 317 319 321 321 321 321 321 320 321 320 320 321 322 321 320 319 319 320 319 318 320 322 323 325 326 336 344 346 340 341 345 334 336 339 340 347 347 344 342 341 339
316 315 315 314 313 315 316 322 320 321 321 320 322 320 321 320 320 320 320 320 322 322 320 320 320 322 321 321 321 322 320 320 332 333 333 344 343 341 339 332 338 345 346 343 347 342 340 337 334
315 313 312 315 315 317 322 320 320 321 321 321 321 320 320 321 320 320 320 320 320 322 321 320 320 319 320 322 322 322 321 322 332 332 335 339 345 345 344 330 341 347 346 343 345 339 333 329 324
315 315 312 318 319 319 319 319 319 321 321 321 320 320 321 321 321 322 322 323 323 323 323 324 326 325 323 324 325 324 324 326 330 329 334 337 342 345 342 336 344 347 345 344 341 333 326 325 326
315 314 313 317 318 318 319 317 320 321 322 320 320 320 320 321 321 321 321 321 321 321 322 322 322 323 326 331 330 329 331 331 331 329 333 341 340 344 340 341 345 343 343 339 333 327 327 326 323
315 315 316 317 323 321 318 317 323 322 321 321 321 320 320 320 320 320 320 321 321 321 321 321 321 322 322 323 322 324 336 337 333 329 336 337 339 343 341 341 344 341 334 328 327 327 328 325 316
314 313 314 318 319 323 319 317 320 320 322 321 319 318 319 319 319 319 320 320 319 319 321 321 322 321 324 325 324 322 324 335 336 329 331 338 336 339 341 339 339 338 336 329 327 325 321 315 311
313 316 317 319 320 321 320 322 321 319 320 319 319 318 318 318 317 318 319 318 318 319 320 320 320 321 321 324 325 325 324 332 333 330 330 339 337 338 336 335 337 337 332 325 322 323 315 311 308
Wind_Speed
2 2 4 7 3 4 5 9 11 18 1 10 14 22 18 17 6 7 7 5 5 3 6 17 18 14 14 14 12 11 11 9 7 8 8 9 11 12 12 12 12 12 12 11 10 8 7 5 3
2 1 2 4 3 0 6 17 9 4 13 15 16 27 22 11 21 16 12 4 2 2 3 17 18 16 14 13 12 11 10 10 8 8 7 8 10 12 12 11 11 10 10 8 7 5 6 4 1
3 2 2 4 3 5 6 10 5 5 13 11 10 16 10 9 12 7 7 3 2 3 2 16 19 16 15 14 13 12 10 10 8 8 7 8 9 10 11 10 10 9 8 7 5 5 4 2 0
4 2 4 1 9 11 10 18 6 4 7 5 8 8 12 9 8 10 10 3 5 2 3 15 20 17 16 15 13 13 12 10 9 9 7 7 9 9 10 9 9 8 7 5 5 4 2 1 1
4 4 1 3 8 10 14 21 11 2 3 7 7 7 13 14 15 10 11 4 8 6 3 3 20 18 17 16 14 12 12 11 10 10 8 8 9 10 9 9 9 9 7 5 3 3 2 0 2
3 3 3 3 8 11 9 17 5 6 9 17 7 11 13 14 11 12 6 4 1 9 11 4 14 19 18 17 16 14 12 11 11 12 11 10 10 10 10 10 10 10 7 5 3 2 1 1 2
4 1 5 8 11 15 12 13 6 6 5 12 9 8 13 11 7 7 5 2 4 7 10 8 9 19 20 19 18 16 14 12 11 12 11 11 11 11 10 10 11 11 8 5 3 2 1 1 3
14 1 6 6 8 11 13 25 13 9 4 10 12 5 6 10 7 6 6 2 2 4 5 6 8 19 23 22 20 18 15 14 13 13 13 12 12 12 12 11 11 11 8 5 4 3 2 2 4
6 3 4 8 5 7 19 13 27 23 14 12 7 10 12 13 4 3 4 1 7 6 7 11 9 10 23 24 22 21 18 17 15 15 15 15 14 14 14 13 12 11 9 6 4 3 3 2 2
3 3 7 6 6 6 16 13 20 17 21 15 20 11 17 17 12 5 10 6 10 10 9 10 12 12 23 26 24 23 21 20 19 17 16 15 15 14 14 13 13 12 10 7 5 3 1 2 5
8 5 5 18 23 13 14 11 19 16 9 20 22 26 20 18 8 5 5 12 10 12 11 11 15 14 18 25 24 25 23 21 20 19 18 17 16 14 16 15 14 12 10 8 6 3 5 4 2
2 8 9 21 25 11 7 24 6 15 17 22 24 25 26 23 18 12 10 9 13 10 10 10 15 16 14 22 20 19 25 23 23 21 20 20 20 16 15 14 10 11 11 8 7 6 2 2 5
7 8 17 18 23 23 19 16 17 19 21 23 21 23 27 27 24 19 18 17 17 16 7 7 10 18 24 21 23 26 19 25 24 23 21 22 22 18 14 13 10 5 8 8 5 3 1 5 2
11 15 17 20 25 28 17 16 23 27 20 24 25 27 27 27 28 26 22 23 25 20 19 14 15 13 22 28 22 28 27 21 22 24 23 25 24 20 19 16 16 11 6 6 5 2 6 8 7
23 11 11 20 24 16 29 10 14 26 26 29 30 30 27 26 23 26 28 24 24 15 21 27 27 22 19 31 28 28 26 23 20 20 21 24 28 25 24 20 20 16 13 9 10 14 14 12 13
10 6 7 12 8 12 12 11 11 24 27 27 21 23 18 20 23 24 23 23 23 28 21 23 27 22 22 21 32 31 34 28 29 24 22 21 30 30 26 21 26 27 21 24 21 18 15 10 8
6 6 14 12 16 17 7 13 8 22 27 22 24 22 22 21 21 25 26 26 26 22 26 20 26 28 20 22 20 33 36 32 29 31 30 27 26 29 29 26 26 23 25 22 18 18 13 8 12
11 10 9 15 10 12 18 21 12 23 19 18 28 30 28 25 31 29 29 29 27 29 26 26 19 28 22 23 24 22 37 39 31 36 38 32 32 30 32 30 26 25 25 23 16 13 13 16 17
9 11 16 16 15 11 14 18 20 21 16 22 30 28 30 31 31 35 32 32 28 27 27 23 23 25 22 20 26 28 27 39 44 18 27 39 38 32 36 30 31 29 27 23 19 16 19 17 16
9 10 14 15 14 15 18 22 20 13 16 27 24 31 33 32 27 25 27 29 29 25 27 24 22 26 24 23 30 30 30 30 37 51 56 45 41 36 33 31 34 28 28 25 20 24 22 18 14
9 8 13 15 18 18 17 17 17 14 24 29 31 32 29 28 32 35 29 33 30 27 25 20 20 25 22 21 21 27 30 27 31 42 49 41 41 33 29 31 33 28 24 27 21 21 20 18 12
7 10 15 18 13 12 7 18 17 14 18 12 27 14 21 15 22 20 14 26 30 27 26 23 22 20 20 21 23 19 30 32 28 36 40 32 36 32 32 29 30 28 25 23 22 21 18 19 11
7 9 15 19 17 13 11 6 13 14 10 16 14 16 21 9 11 17 13 7 20 24 23 22 23 22 23 24 17 16 19 27 35 31 27 28 30 34 26 26 29 24 28 26 26 21 18 16 13
7 10 17 9 7 7 7 1 3 3 4 10 9 10 12 5 10 10 8 4 2 19 23 22 19 19 24 21 19 18 19 23 27 26 26 27 30 35 26 29 34 32 32 28 24 19 17 16 14
12 7 5 5 4 7 5 4 8 14 12 11 13 13 6 3 15 6 5 3 1 3 18 20 20 23 23 24 22 21 18 21 24 24 22 26 32 33 39 37 36 35 33 28 22 18 16 18 15
4 1 3 6 10 16 9 7 2 5 16 21 30 24 17 6 12 20 22 18 15 13 13 14 12 13 25 25 22 20 17 19 22 23 21 22 31 31 35 34 36 35 32 28 21 19 19 17 13
7 3 8 7 6 4 5 8 3 12 11 10 20 30 29 41 21 17 11 15 16 15 14 11 15 12 7 9 9 20 22 21 23 25 21 18 23 31 34 38 38 33 27 24 24 22 19 13 10
9 7 7 2 4 5 5 6 3 8 13 14 15 22 28 30 24 24 11 7 9 11 12 11 12 14 15 14 15 11 14 21 22 24 19 18 19 37 32 36 28 24 25 25 22 20 15 14 13
12 11 7 3 5 4 4 4 6 6 6 6 0 7 15 21 25 23 24 9 6 7 6 12 15 13 13 14 16 17 16 15 21 21 19 15 16 31 42 35 27 26 26 22 21 20 18 15 15
13 3 4 3 5 3 3 5 5 5 9 9 17 13 10 12 26 22 16 16 11 8 8 12 14 12 15 16 13 17 16 14 18 18 16 12 20 28 26 13 23 29 32 27 23 20 20 18 16
Wind_Direction
180 113 60 337 41 83 268 263 243 297 70 45 71 97 89 55 62 114 73 350 350 76 97 170 163 156 150 140 132 135 144 153 152 144 135 145 147 145 146 148 147 148 148 146 148 154 159 160 144
203 104 301 280 116 102 266 254 307 9 33 36 43 91 76 77 90 73 68 360 347 318 119 179 171 163 156 147 142 139 148 155 161 158 152 154 154 153 153 152 151 150 147 146 146 144 152 168 160
110 7 309 150 202 201 246 268 338 25 54 22 34 76 67 104 82 86 79 316 251 11 122 185 179 173 163 155 153 146 152 159 165 170 166 164 161 159 157 157 155 150 146 146 153 155 163 183 173
49 230 252 88 270 269 251 277 280 -0 32 70 60 78 79 87 88 90 83 287 268 178 79 187 186 183 171 164 167 157 159 164 174 176 176 174 169 168 167 166 163 159 158 158 163 171 195 225 315
28 294 268 257 260 268 278 280 277 150 355 12 105 93 105 100 103 76 77 31 265 228 165 138 195 189 181 175 176 171 166 172 177 181 184 182 180 175 177 177 172 172 176 178 171 172 193 249 340
309 245 22 256 271 276 284 319 177 41 24 6 60 107 89 109 100 58 59 324 45 234 169 164 199 195 191 183 183 182 177 178 185 188 188 186 188 185 184 189 185 184 188 188 180 179 206 334 359
198 124 244 271 283 300 311 331 53 36 20 40 29 94 102 97 110 78 25 28 245 215 188 187 189 203 199 193 190 189 187 186 189 197 196 192 192 195 193 195 195 192 198 206 218 233 259 294 1
228 130 298 291 283 284 8 355 6 15 309 52 31 30 150 115 93 135 117 29 188 210 214 214 228 204 205 201 196 195 195 195 195 199 200 199 199 200 202 201 202 201 208 220 236 249 282 330 24
289 32 295 266 312 309 2 10 352 350 12 349 356 315 306 329 340 89 185 165 199 224 221 238 218 225 210 208 203 200 200 202 201 202 203 203 203 205 205 204 205 206 213 225 245 262 286 353 51
158 145 246 267 332 339 335 4 329 341 338 339 334 324 314 321 298 191 182 284 214 204 227 245 246 239 218 210 209 208 205 204 205 205 206 206 205 208 210 210 211 209 215 221 225 247 303 106 116
263 209 308 313 321 331 337 339 339 341 328 319 324 318 312 322 326 34 230 260 309 232 220 244 244 235 217 214 212 215 214 210 209 208 206 206 205 199 208 212 213 216 220 217 207 168 121 137 173
24 313 301 288 298 334 322 306 301 292 295 301 300 302 298 299 299 289 280 249 292 204 244 239 226 216 192 216 222 224 224 219 216 213 206 205 207 197 215 209 216 229 223 208 202 187 155 240 331
347 308 309 321 319 314 303 280 288 278 286 283 283 281 283 284 285 286 267 258 260 271 191 229 219 219 202 208 227 232 231 228 226 220 210 204 206 201 216 212 205 214 204 181 152 197 176 200 326
300 310 314 300 277 273 260 258 265 275 278 282 277 273 271 269 273 277 274 258 252 267 251 245 243 254 227 224 229 225 235 232 229 227 217 204 204 204 216 216 216 220 195 193 203 158 233 248 226
302 289 281 270 261 251 250 253 245 263 276 265 266 267 258 261 255 261 264 263 243 268 246 244 252 258 247 228 228 223 223 226 228 229 214 211 203 205 214 215 215 217 216 218 199 210 215 238 245
273 262 278 281 301 330 226 249 242 270 268 261 260 290 239 250 262 265 253 257 256 261 258 246 240 244 256 240 228 216 210 221 224 230 225 217 214 204 213 217 206 208 205 213 215 216 223 216 216
278 298 312 318 336 335 319 283 271 296 303 294 272 253 253 244 249 258 255 256 257 251 255 248 239 238 250 247 242 233 220 218 220 219 226 224 220 212 211 213 209 215 210 217 220 223 196 223 224
321 322 310 312 320 303 293 298 293 291 287 306 301 283 251 251 244 241 243 249 243 251 252 251 249 232 235 254 248 244 234 231 219 213 223 223 224 226 214 209 208 210 208 214 207 201 212 224 231
329 323 309 303 304 306 297 283 281 277 285 283 278 277 271 256 260 244 245 247 243 240 240 240 245 217 227 241 251 253 255 241 230 260 234 230 224 226 219 208 206 211 213 200 202 208 208 222 231
312 305 306 306 327 326 314 304 298 284 271 267 264 277 267 261 261 253 245 248 237 235 231 231 238 230 233 254 258 252 255 258 248 236 248 228 223 223 224 208 207 210 202 201 212 213 211 217 235
309 312 328 317 323 309 293 293 300 306 302 284 271 271 261 257 255 255 247 238 229 222 217 219 239 231 240 252 267 256 256 258 249 235 220 223 227 220 229 214 206 211 204 202 211 213 216 217 212
332 332 315 302 301 293 317 295 288 284 288 310 269 295 316 274 248 231 223 232 223 218 219 224 227 231 235 270 271 264 259 264 266 254 245 248 217 228 231 214 203 215 208 206 216 218 215 214 200
302 314 291 291 287 305 316 260 299 303 305 339 338 76 339 44 74 67 43 243 224 216 210 218 232 239 253 253 264 269 271 268 268 277 279 261 218 217 222 212 200 204 199 206 211 213 200 208 218
305 322 322 304 312 297 283 119 305 314 292 311 323 43 9 46 71 41 1 2 6 214 212 208 229 248 244 243 255 268 287 286 273 276 273 267 224 217 233 219 205 206 206 208 204 199 197 196 195
344 332 320 330 346 265 345 319 254 317 285 303 319 292 194 225 86 77 6 308 25 194 213 224 231 238 244 236 243 257 283 294 287 282 274 259 238 225 213 198 213 200 204 202 192 190 183 182 186
290 79 195 282 301 292 300 258 323 49 44 23 351 322 1 40 86 73 68 66 58 57 66 67 75 260 239 230 238 259 273 290 298 298 287 264 247 235 195 192 208 204 200 194 189 181 174 180 186
299 250 249 285 300 297 237 262 329 21 30 28 348 359 10 20 40 67 67 56 55 47 27 15 17 2 46 223 269 262 270 282 302 309 288 275 256 233 196 203 202 197 188 181 176 174 177 179 172
280 293 312 291 273 263 254 319 210 2 2 340 7 354 358 7 6 1 27 34 30 34 37 14 13 357 340 321 301 308 274 278 294 305 296 280 256 234 200 195 196 189 170 169 174 176 175 178 164
315 302 306 282 154 274 292 268 169 171 148 262 288 296 337 339 348 352 355 27 3 322 2 5 13 345 355 330 330 305 294 286 289 300 298 280 253 196 185 193 180 178 174 173 187 171 167 158 142
264 135 117 293 307 311 292 267 227 179 158 213 247 241 271 288 296 319 324 341 346 323 305 326 339 351 342 324 323 318 301 283 284 294 297 268 222 226 223 204 189 183 174 175 178 172 158 143 131